Probability
0 0 0 0 0 0 0 0 0 0 0 0 0 1 2 5 13 25 40 46 43 41 43 48 54 58 56 51 43 36 32 30 24 17 11 8 7 7 7 6 4 2 3 3
0 0 0 0 0 0 0 0 0 0 0 0 0 0 1 4 11 24 36 42 43 42 45 50 55 58 57 50 41 34 30 26 21 16 11 8 6 7 7 5 3 2 3 3
0 0 0 0 0 0 0 0 0 0 0 0 0 0 0 3 9 18 26 34 39 42 46 51 54 54 52 45 37 30 25 21 17 14 11 8 5 5 5 4 2 2 2 2
0 0 0 0 0 0 0 0 0 0 0 0 0 0 1 3 7 11 17 25 32 34 38 44 48 46 42 37 30 24 22 20 16 13 11 8 4 4 3 2 3 2 1 2
0 0 0 0 0 0 0 0 0 0 0 0 0 0 1 3 6 7 10 17 21 24 28 34 38 37 34 29 23 19 19 20 16 12 10 7 5 3 2 2 3 1 1 2
0 0 0 0 0 0 0 0 0 0 0 0 0 0 1 2 4 6 7 9 12 16 23 27 28 28 27 23 18 15 16 17 15 11 9 8 5 2 1 1 1 1 1 1
0 0 0 0 0 0 0 0 0 0 0 0 0 0 0 1 3 6 6 7 8 13 20 23 23 24 24 20 14 12 12 12 12 11 10 8 5 2 1 0 1 1 2 2
0 0 0 0 0 0 0 0 0 0 0 0 0 0 1 2 4 6 6 7 9 12 16 19 19 21 22 17 12 10 9 10 12 12 11 8 5 2 1 0 1 2 2 2
0 0 0 0 0 0 0 0 0 0 0 0 0 0 1 3 4 5 6 7 9 11 13 15 17 18 18 14 11 10 10 11 13 14 12 9 5 3 1 0 1 2 2 1
0 0 0 0 0 0 0 0 0 0 0 0 0 0 1 2 4 6 8 8 8 10 13 15 16 16 14 11 9 10 12 14 14 14 12 9 6 3 1 0 1 1 1 0
0 0 0 0 0 0 0 0 0 0 0 0 0 0 1 3 5 8 10 9 10 12 15 15 15 14 11 8 7 8 11 13 13 11 10 8 5 2 0 0 0 0 0 0
0 0 0 0 0 0 0 0 0 0 0 0 0 1 4 8 10 11 12 11 12 14 15 15 13 11 9 6 6 7 9 11 10 8 6 4 2 0 0 0 0 0 0 1
0 0 0 0 0 0 0 0 0 0 0 0 0 2 6 12 15 15 14 13 14 15 14 13 12 10 8 6 6 6 7 8 7 5 3 1 0 0 1 1 0 1 1 2
0 0 0 0 0 0 0 0 0 0 0 0 1 3 7 13 19 19 17 14 13 12 11 11 10 9 8 7 6 6 5 5 5 3 1 1 1 1 1 1 1 2 3 3
0 0 0 0 0 0 0 0 0 0 0 1 3 5 8 14 19 21 18 14 11 8 8 10 9 9 8 7 6 6 5 4 3 2 1 2 1 1 1 1 2 3 3 4
0 0 0 0 0 0 0 0 0 0 1 3 6 8 10 16 22 22 17 14 10 8 9 9 9 9 8 7 6 6 5 4 4 3 2 2 1 1 2 3 3 3 4 5
0 0 0 0 0 0 0 0 1 1 3 6 10 11 13 20 24 20 15 13 13 12 12 11 9 8 7 5 4 5 6 5 5 5 3 2 0 0 1 3 4 4 4 6
0 0 0 0 0 0 0 1 2 3 5 8 9 11 14 18 19 15 12 12 14 14 13 11 9 7 5 3 3 5 7 7 6 4 3 1 0 0 0 1 2 3 4 4
0 0 0 0 0 0 0 1 2 3 5 7 7 8 10 12 12 12 11 11 13 14 13 11 8 6 4 3 4 7 9 9 7 4 2 2 2 2 2 2 2 2 2 2
0 0 0 0 0 0 1 1 2 2 4 5 5 5 5 7 9 10 11 11 12 12 12 11 9 7 6 5 7 9 9 8 7 5 4 5 5 6 5 5 3 3 2 1
0 0 0 0 0 0 1 2 2 1 3 4 5 4 4 4 6 7 10 11 10 10 13 13 10 9 8 7 8 9 8 7 7 7 6 7 8 8 8 6 4 3 2 1
0 0 0 0 0 0 2 3 2 1 1 2 3 3 2 2 3 5 7 7 5 7 11 11 9 8 8 7 8 9 8 7 7 8 7 6 7 7 7 6 4 3 2 1
0 0 0 0 0 0 1 2 2 1 0 1 1 1 1 1 1 3 3 3 2 3 5 6 6 6 6 6 6 7 6 5 6 6 5 4 5 5 5 4 3 2 2 1
0 0 0 0 0 0 0 1 1 0 0 0 0 0 0 0 0 1 1 1 0 1 2 3 3 3 3 2 3 4 3 3 4 4 3 3 3 2 2 1 1 1 1 0
0 0 0 0 0 0 0 0 0 0 0 0 0 0 0 0 0 0 0 0 0 0 1 1 1 1 1 0 1 2 2 2 4 4 3 3 2 1 0 0 0 0 0 0
0 0 0 0 0 0 0 1 1 1 0 0 0 0 0 0 0 0 0 0 0 0 0 0 0 0 0 0 0 1 1 1 2 3 3 2 1 0 0 0 0 0 0 0
Wind_Speed
4 2 5 8 8 8 7 8 11 12 7 1 2 3 5 5 5 8 8 9 9 9 8 9 10 11 10 10 11 11 11 10 9 7 6 5 5 5 4 4 6 6 6 6
2 7 11 9 8 9 10 11 11 9 4 1 3 2 2 3 5 8 10 10 10 8 7 9 9 10 10 11 11 11 11 11 10 8 6 4 4 4 4 4 5 6 6 6
9 9 8 10 11 10 12 9 8 6 3 4 3 2 2 1 2 5 7 7 9 12 12 11 11 10 10 11 11 11 11 11 10 9 6 5 3 3 3 4 4 5 6 6
8 12 11 10 11 10 11 11 7 3 1 2 1 1 4 2 1 2 5 7 7 8 10 10 10 10 10 9 9 9 10 10 9 9 9 9 7 6 5 5 4 5 6 6
8 6 9 11 14 10 10 10 5 1 2 2 4 2 6 3 1 2 4 6 7 8 10 10 10 10 9 9 8 8 8 9 10 10 10 9 6 5 4 4 6 5 5 6
10 8 6 11 13 10 7 2 5 6 6 3 3 1 5 4 5 4 2 3 5 7 8 8 8 8 7 7 7 8 8 8 9 10 10 10 9 8 8 7 7 6 4 4
8 11 9 8 8 7 1 5 5 5 5 4 4 1 6 6 4 4 4 3 4 7 8 9 9 9 9 9 9 8 9 9 9 10 10 10 11 11 10 9 8 7 5 4
5 8 7 5 8 8 4 10 8 5 4 4 3 2 6 5 2 2 3 5 5 6 6 8 10 10 10 10 9 9 9 9 9 10 10 9 9 7 7 8 7 7 6 6
6 7 6 6 6 9 5 5 9 8 3 1 3 4 6 2 2 2 3 4 5 6 6 6 7 7 8 8 8 9 9 8 9 9 9 9 9 8 8 7 7 6 5 6
9 5 8 5 1 1 7 7 6 6 4 1 2 2 4 4 3 2 1 2 3 5 6 6 6 6 6 7 6 7 8 8 8 8 8 8 8 9 8 7 8 7 6 6
8 6 6 4 1 2 2 3 5 5 6 6 3 6 7 9 8 7 6 6 7 7 7 6 5 5 5 5 6 6 6 6 7 8 7 7 7 8 8 7 7 7 7 7
7 7 3 4 2 2 5 4 6 5 2 5 5 7 5 5 5 6 6 5 5 6 6 6 5 5 4 4 5 5 5 5 6 6 7 7 7 7 7 7 7 6 7 7
6 7 3 5 7 6 4 2 4 5 4 3 4 6 2 2 3 5 7 7 7 6 5 4 5 5 5 5 5 4 5 6 6 6 6 6 7 7 7 6 6 6 6 6
7 6 7 7 5 2 1 1 3 5 3 2 4 4 2 2 4 5 6 7 7 6 5 4 4 4 5 5 5 4 4 5 6 6 6 6 6 7 6 6 6 6 6 6
7 5 3 3 2 2 1 1 2 2 4 5 4 3 5 6 6 7 7 8 8 6 5 5 5 4 4 5 5 5 4 4 5 6 6 6 6 6 5 5 5 5 6 6
6 5 3 3 4 3 2 2 2 1 1 3 3 1 1 4 5 5 5 7 7 7 6 5 5 5 5 5 6 6 5 5 5 5 5 5 5 5 5 5 5 5 4 5
3 5 4 2 3 4 2 3 2 3 3 2 3 2 3 7 6 4 4 5 6 5 5 6 6 6 6 6 6 6 6 6 6 5 4 5 5 5 5 5 5 5 4 4
6 5 4 2 4 1 5 2 6 9 7 5 4 4 6 8 6 5 4 5 5 5 5 4 4 4 4 4 5 5 6 7 6 5 4 4 5 6 5 5 4 4 4 4
6 7 5 4 2 3 3 4 3 4 4 5 5 5 6 7 7 5 4 4 5 5 5 4 4 4 4 5 6 6 5 5 6 5 5 5 5 6 6 6 5 4 5 5
6 6 6 4 3 3 3 6 3 5 2 3 3 3 3 3 4 0 2 4 5 4 4 5 5 5 5 4 5 7 6 6 5 5 4 4 5 6 6 6 5 5 6 5
4 4 4 4 3 2 4 7 4 3 3 2 1 3 3 2 3 3 4 5 5 5 6 7 7 6 4 4 5 7 6 5 4 5 5 5 5 5 6 6 5 6 6 7
3 3 2 3 3 3 5 5 3 2 1 1 0 2 6 7 6 6 7 7 7 7 7 8 8 7 5 4 5 7 5 4 5 6 7 6 6 6 6 7 7 7 7 7
2 3 3 3 3 1 2 3 1 0 0 1 1 3 7 8 7 8 8 8 8 8 7 7 9 9 7 6 6 7 4 5 8 8 8 8 8 8 7 7 7 7 6 6
2 2 4 3 1 2 3 4 4 2 1 2 3 5 7 8 9 9 8 8 8 8 7 7 9 10 9 7 8 7 6 7 10 10 9 8 9 9 9 7 7 7 6 6
1 2 3 2 1 2 3 4 4 5 4 5 5 5 7 10 10 10 9 8 8 8 7 7 9 10 9 8 9 8 7 9 11 10 9 9 9 9 9 9 8 7 6 5
1 2 3 3 3 2 0 2 3 5 6 6 7 8 7 9 11 11 9 8 8 10 8 9 10 10 9 9 9 8 7 8 10 9 8 7 7 7 7 9 9 14 11 13
Wind_Direction
235 158 227 231 219 222 255 274 277 275 277 219 170 196 208 191 166 156 165 171 177 187 177 165 163 161 157 156 159 164 161 160 156 154 157 154 162 168 165 168 160 161 157 154
284 250 236 233 245 250 259 269 273 280 284 159 173 218 215 172 172 167 164 171 170 169 164 163 161 160 163 164 164 164 168 165 165 166 161 158 156 163 160 162 162 168 161 157
214 242 236 234 250 255 264 251 251 257 322 35 98 1 328 327 114 139 150 163 167 171 172 170 167 169 166 168 170 171 170 169 169 160 145 138 128 125 141 155 168 174 166 163
241 247 253 252 251 243 262 259 253 261 51 328 90 204 286 271 341 143 151 156 173 176 171 171 170 169 173 174 169 167 170 171 168 160 159 161 166 168 177 166 168 170 168 162
243 233 229 241 248 241 239 255 254 221 110 44 11 95 285 330 294 233 195 168 170 172 171 171 171 170 171 166 165 166 167 172 171 170 171 167 169 171 162 156 162 170 170 165
256 269 242 236 249 244 241 313 20 45 69 32 287 150 276 261 236 251 212 170 167 164 162 161 159 154 158 162 163 166 169 174 175 176 177 174 173 170 167 172 171 173 169 170
283 278 259 243 254 275 206 89 32 2 15 264 269 204 248 258 235 198 194 179 172 160 157 157 155 159 163 168 172 175 177 179 181 181 181 181 179 176 179 178 176 171 170 177
232 274 257 222 200 207 200 141 155 187 214 262 319 251 266 269 230 156 152 148 148 155 162 168 168 169 171 175 177 179 182 182 180 181 181 179 179 179 182 180 176 179 181 183
205 253 272 257 213 169 176 181 171 142 155 113 292 298 307 331 32 61 107 127 150 160 166 173 172 170 171 176 181 183 183 182 182 181 177 178 181 182 182 180 180 179 180 180
181 251 287 294 20 174 168 159 101 115 145 188 278 269 253 239 221 187 156 152 168 154 159 163 166 165 167 170 175 179 183 186 182 176 178 181 180 181 180 176 179 180 182 179
167 187 291 357 69 199 79 87 107 122 146 149 193 257 232 208 192 179 183 173 163 153 157 162 165 163 162 162 165 172 177 176 177 174 170 172 174 177 178 181 182 180 178 173
167 144 225 265 279 139 130 146 131 139 198 154 158 258 265 195 176 162 157 149 136 142 149 148 141 134 136 149 160 165 169 167 168 163 161 169 169 170 176 182 179 174 174 174
133 120 113 345 346 11 65 89 125 129 118 140 153 255 299 113 127 138 130 128 124 120 121 125 130 142 149 149 149 152 158 158 153 150 155 157 159 162 171 176 172 169 168 170
108 101 142 176 210 223 75 59 98 103 121 182 201 220 250 173 152 131 125 128 129 130 137 141 139 147 152 153 146 149 152 155 153 152 155 157 161 161 166 168 166 167 167 169
85 94 112 137 133 109 92 56 78 122 178 181 215 208 229 195 161 151 147 140 140 148 154 151 142 134 144 150 148 154 152 153 153 150 155 162 159 156 158 160 161 161 164 171
65 98 74 33 32 45 26 1 13 60 127 144 120 31 286 113 105 109 133 142 144 158 161 157 147 143 153 159 155 151 150 152 147 149 155 154 153 154 158 159 156 152 153 156
68 93 82 355 354 48 356 329 59 59 23 132 149 196 115 93 87 95 111 125 133 144 144 155 158 164 164 163 156 153 151 137 130 135 138 136 143 146 152 158 154 159 158 144
116 99 108 82 48 187 244 342 82 80 53 48 83 110 112 118 105 84 85 112 119 124 127 134 142 149 155 148 142 138 135 133 131 130 137 135 132 134 129 128 136 146 141 134
128 124 109 109 117 284 316 3 35 88 45 32 85 93 104 116 89 59 48 87 114 120 125 136 137 139 137 139 141 131 133 134 130 132 135 142 141 132 127 128 125 119 113 109
71 95 109 117 136 220 274 322 336 98 74 8 81 115 129 96 94 97 18 74 87 96 104 109 109 101 100 114 126 127 130 127 133 144 147 144 140 134 131 128 116 105 109 112
45 55 105 139 167 229 309 316 6 106 215 305 114 134 123 98 143 141 96 80 76 79 91 96 92 93 93 98 112 119 122 131 142 134 122 113 114 118 119 115 112 111 111 103
130 122 143 136 159 235 337 19 65 211 274 341 51 106 106 111 110 105 93 85 79 73 77 89 90 81 73 78 99 104 115 127 113 104 99 95 94 100 102 103 102 105 107 100
85 160 161 150 175 222 25 81 64 101 217 238 140 125 123 123 121 110 99 93 86 79 76 82 90 81 65 58 78 91 83 90 95 91 87 84 80 74 79 94 98 95 95 97
6 40 95 94 82 36 36 41 27 23 68 112 125 127 122 118 122 113 105 98 92 81 76 80 83 81 68 55 63 74 79 89 93 92 88 85 83 76 68 68 77 87 90 96
308 49 90 110 148 45 25 23 25 41 67 91 100 113 120 116 113 111 106 101 99 91 79 78 82 80 71 64 62 63 72 88 93 91 89 87 84 84 77 69 60 71 66 92
302 155 156 190 186 154 253 9 57 74 75 92 106 102 102 111 112 108 103 97 96 94 90 85 80 78 72 68 64 56 62 81 91 90 86 88 91 91 91 91 74 56 67 71